Location: Bothwell
(42.3833°S, 147.0000°E)
Time: 19:55:48
(UTC+11:00)

First-Move - Pass Details

Date: 02 October 2022
Orbit: 570 x 653 km, 97.7° (Epoch: 25 November)

Event Time Altitude Azimuth Distance (km) Brightness Sun altitude
Exits shadow 03:23:40 25° 113° (ESE) 1,335 ? -34.1°
Drops below altitude 10° 03:27:24 10° 167° (SSE) 2,102 ? -33.6°
Enters shadow 04:38:06 -37° 7° (N) 8,543 ? -23.1°
Sets 05:06:04 0° 201° (SSW) 3,019 ? -18.4°
